1497812400.77,5461,17.44,74516.3,1.85,-29.29,-29.01,0,*4D
1497812402.04,5462,17.44,74512.8,1.85,-29.29,-29.01,0,*4E
1497812403.28,5463,17.44,74510.8,1.85,-29.23,-29.01,0,*45
1497812404.55,5464,17.44,74514.0,1.85,-28.91,-28.75,0,*48
1497812405.8,5465,17.44,74514.8,1.85,-29.01,-28.85,0,*4E
1497812407.05,5466,17.5,74514.5,1.85,-28.91,-28.85,0,*45
1497812408.27,5467,17.44,74516.8,1.89,-28.69,-28.69,0,*4D
1497812409.54,5468,17.44,74518.0,1.85,-28.59,-28.59,0,*4E
1497812410.76,5469,17.5,74518.0,1.85,-28.53,-28.53,0,*4F
1497812412.01,5470,17.44,74518.5,1.89,-28.53,-28.21,0,*4E
1497812413.24,5471,17.44,74514.5,1.89,-28.53,-28.31,0,*4E
1497812414.51,5472,17.44,74514.5,1.89,-28.63,-28.21,0,*4F
1497812415.76,5473,17.5,74516.0,1.89,-28.79,-28.15,0,*42
1497812417.01,5474,17.44,74512.0,1.85,-28.85,-27.99,0,*41
1497812418.22,5475,17.44,74514.0,1.85,-28.69,-27.55,0,*42
1497812419.49,5476,17.5,74516.8,1.85,-28.75,-27.39,0,*46
1497812420.74,5477,17.44,74512.0,1.85,-28.53,-27.19,0,*41
1497812422.0,5478,17.44,74512.3,1.85,-28.43,-26.55,0,*46
1497812423.22,5479,17.44,74510.3,1.83,-28.21,-25.91,0,*4E
1497812424.45,5480,17.44,74514.0,1.83,-28.09,-25.49,0,*47
1497812425.69,5481,17.44,74514.8,1.89,-27.67,-24.87,0,*48
1497812426.91,5482,17.5,74512.3,1.85,-27.51,-24.35,0,*4B
1497812428.15,5483,17.5,74516.0,1.85,-27.23,-23.75,0,*4C
1497812429.4,5484,17.44,74512.0,1.89,-26.81,-22.93,0,*47
1497812430.64,5485,17.44,74512.8,1.85,-26.55,-22.11,0,*49
1497812431.84,5486,17.44,74514.8,1.83,-26.39,-21.47,0,*46
1497812433.09,5487,17.44,74516.0,1.85,-25.81,-20.39,0,*49
1497812434.28,5488,17.44,74514.3,1.83,-25.49,-19.51,0,*40
1497812435.49,5489,17.5,74516.5,1.85,-25.09,-18.41,0,*43
1497812436.72,5490,17.44,74514.3,1.83,-24.41,-17.35,0,*4C
1497812437.95,5491,17.44,74514.0,1.83,-23.59,-15.85,0,*4A
1497812439.17,5492,17.44,74514.8,1.85,-23.09,-14.69,0,*49
1497812440.38,5493,17.44,74512.8,1.85,-22.11,-13.43,0,*4F
1497812441.59,5494,17.44,74512.3,1.85,-21.09,-12.43,0,*43
1497812442.84,5495,17.44,74512.8,1.85,-19.99,-11.51,0,*40
1497812444.06,5496,17.44,74512.5,1.85,-19.07,-10.35,0,*47
1497812445.3,5497,17.44,74510.0,1.89,-18.07,-9.45,0,*74
1497812446.53,5498,17.44,74506.8,1.89,-17.21,-8.67,0,*71
1497812447.77,5499,17.44,74504.0,1.89,-16.55,-8.11,0,*73
1497812448.99,5500,17.44,74504.8,1.89,-15.71,-7.49,0,*75
1497812450.21,5501,17.5,74502.5,1.91,-14.79,-6.81,0,*71
1497812451.4,5502,17.44,74506.3,1.91,-13.65,-6.31,0,*73
1497812452.59,5503,17.44,74508.0,1.91,-11.41,-5.35,0,*71
1497812453.82,5504,17.44,74510.5,1.91,-10.19,-5.11,0,*7C
1497812455.06,5505,17.44,74506.5,1.93,-9.71,-4.93,0,*42
1497812456.3,5506,17.44,74508.3,1.93,-9.75,-5.19,0,*46
1497812457.51,5507,17.44,74506.3,1.91,-10.05,-5.65,0,*71
1497812458.71,5508,17.44,74506.3,1.93,-10.53,-6.09,0,*76
1497812459.98,5509,17.44,74508.3,1.93,-11.67,-7.01,0,*78
1497812461.22,5510,17.44,74508.0,1.93,-13.23,-7.95,0,*7F
1497812462.46,5511,17.44,74516.8,1.95,-16.23,-9.45,0,*7E
1497812463.66,5512,17.44,74514.3,1.95,-18.49,-10.27,0,*43
1497812464.91,5513,17.44,74508.8,1.93,-19.71,-10.79,0,*45
1497812466.13,5514,17.44,74504.8,1.95,-20.69,-11.55,0,*48
1497812467.38,5515,17.44,74504.3,1.93,-22.67,-12.79,0,*4E
1497812468.59,5516,17.44,74514.5,1.95,-23.29,-13.47,0,*4C
1497812469.81,5517,17.44,74516.5,1.95,-24.97,-14.51,0,*4F
1497812471.01,5518,17.44,74518.0,1.95,-26.61,-15.25,0,*49
1497812472.26,5519,17.44,74516.8,1.93,-26.93,-15.63,0,*41
1497812473.48,5520,17.44,74516.3,1.95,-26.07,-15.35,0,*43
1497812474.68,5521,17.44,74520.0,1.95,-23.79,-14.23,0,*48
1497812475.93,5522,17.44,74516.8,1.95,-22.31,-14.01,0,*46
1497812477.14,5523,17.44,74516.3,1.93,-21.73,-13.93,0,*48
1497812478.35,5524,17.44,74512.0,1.95,-19.13,-12.93,0,*45
1497812479.57,5525,17.44,74512.8,1.95,-18.35,-12.89,0,*4A
1497812480.81,5526,17.44,74516.5,1.95,-18.59,-13.33,0,*43
1497812482.04,5527,17.5,74518.8,1.93,-18.65,-14.23,0,*4D
1497812483.26,5528,17.44,74512.3,1.95,-18.93,-15.95,0,*41
1497812484.5,5529,17.44,74514.8,1.95,-20.15,-17.79,0,*45
1497812485.74,5530,17.44,74512.5,1.97,-19.65,-19.03,0,*41
1497812486.96,5531,17.44,74508.0,1.97,-19.71,-19.17,0,*40
1497812488.18,5532,17.44,74514.0,1.97,-20.25,-20.63,0,*41
1497812489.45,5533,17.44,74516.8,1.97,-21.67,-21.83,0,*48
1497812490.7,5534,17.44,74516.3,1.97,-23.89,-22.47,0,*46
1497812491.94,5535,17.44,74520.8,1.97,-26.71,-24.51,0,*44
1497812493.16,5536,17.44,74522.8,1.95,-27.45,-25.91,0,*4E
1497812494.36,5537,17.44,74524.8,1.95,-27.29,-26.45,0,*4F
1497812495.6,5538,17.44,74526.8,1.95,-28.09,-26.97,0,*42
1497812496.82,5539,17.44,74522.5,1.95,-28.75,-27.55,0,*47
1497812498.07,5540,17.44,74524.3,1.95,-29.29,-28.63,0,*4B
1497812499.32,5541,17.44,74526.3,1.95,-29.35,-28.91,0,*4A
1497812500.54,5542,17.44,74522.0,1.95,-29.45,-29.17,0,*41
1497812501.8,5543,17.44,74522.3,1.93,-29.45,-29.51,0,*44
1497812503.05,5544,17.44,74520.8,1.93,-29.61,-29.51,0,*45
1497812504.27,5545,17.44,74518.3,1.93,-29.67,-29.61,0,*41
1497812505.5,5546,17.44,74518.8,1.93,-29.61,-29.67,0,*42
1497812506.78,5547,17.44,74512.5,1.93,-29.51,-29.51,0,*45
1497812508.06,5548,17.44,74518.8,1.93,-29.51,-29.51,0,*4A
1497812509.29,5549,17.44,74512.0,1.91,-29.57,-29.35,0,*4D
1497812510.52,5550,17.44,74514.0,1.91,-29.51,-28.53,0,*42
1497812511.75,5551,17.44,74512.8,1.91,-28.69,-25.97,0,*4C
1497812512.96,5552,17.44,74514.0,1.91,-25.29,-22.67,0,*4E
1497812514.22,5553,17.44,74514.0,1.93,-22.97,-21.67,0,*4C
1497812515.47,5554,17.44,74512.8,1.93,-22.97,-21.87,0,*45
1497812516.67,5555,17.44,74508.5,1.91,-22.41,-21.93,0,*48
1497812517.89,5556,17.44,74510.8,1.91,-22.93,-23.03,0,*4F
1497812519.09,5557,17.44,74512.3,1.91,-24.61,-25.13,0,*42
1497812520.29,5558,17.44,74512.8,1.91,-27.13,-27.51,0,*4F
1497812521.57,5559,17.44,74514.8,1.93,-28.91,-28.63,0,*47
1497812522.81,5560,17.44,74508.3,1.89,-28.47,-28.15,0,*4C
1497812524.0,5561,17.44,74512.8,1.91,-28.69,-29.07,0,*4A
1497812525.19,5562,17.44,74514.0,1.91,-28.97,-29.07,0,*48
1497812526.41,5563,17.44,74512.5,1.91,-29.01,-29.07,0,*47
1497812527.64,5564,17.44,74512.5,1.91,-29.51,-29.83,0,*49
1497812528.87,5565,17.44,74516.0,1.91,-29.57,-30.01,0,*4C
1497812530.1,5566,17.44,74506.8,1.93,-29.61,-29.95,0,*4D
1497812531.33,5567,17.44,74508.3,1.91,-29.67,-30.01,0,*4D
1497812532.55,5568,17.44,74508.0,1.91,-29.67,-30.05,0,*46
1497812533.78,5569,17.44,74514.5,1.91,-29.57,-30.01,0,*40
1497812535.04,5570,17.44,74504.5,1.91,-29.39,-30.01,0,*40
1497812536.31,5571,17.44,74506.5,1.89,-29.35,-30.01,0,*44
1497812537.55,5572,17.44,74500.3,1.89,-29.23,-29.73,0,*4D
1497812538.78,5573,17.44,74502.0,1.89,-29.23,-29.67,0,*49
1497812540.02,5574,17.44,74500.8,1.89,-29.23,-29.39,0,*45
1497812541.25,5575,17.44,74506.5,1.89,-29.17,-29.23,0,*48
1497812542.47,5576,17.44,74512.3,1.89,-29.07,-29.57,0,*49
1497812543.73,5577,17.44,74510.5,1.91,-29.01,-29.51,0,*41
1497812544.98,5578,17.44,74508.0,1.89,-29.35,-29.83,0,*4F
1497812546.23,5579,17.44,74506.3,1.89,-29.51,-29.83,0,*4C
1497812547.46,5580,17.44,74508.0,1.89,-29.67,-29.83,0,*4F
1497812548.68,5581,17.44,74512.5,1.89,-29.67,-29.67,0,*44
1497812549.91,5582,17.44,74514.0,1.89,-29.67,-29.83,0,*4D
1497812551.16,5583,17.44,74508.3,1.89,-29.83,-29.89,0,*4C
1497812552.39,5584,17.44,74510.3,1.91,-29.83,-30.01,0,*4A
1497812553.64,5585,17.44,74510.3,1.89,-29.35,-29.67,0,*47
1497812554.88,5586,17.44,74504.3,1.89,-28.69,-29.35,0,*4B
1497812556.13,5587,17.44,74504.3,1.85,-28.59,-28.53,0,*44
1497812557.34,5588,17.44,74504.5,1.85,-27.71,-28.37,0,*4C
1497812558.56,5589,17.44,74510.5,1.83,-27.89,-28.91,0,*40
1497812559.79,5590,17.44,74506.3,1.85,-29.23,-29.57,0,*4B
1497812561.03,5591,17.44,74506.8,1.85,-29.01,-29.61,0,*4F
1497812562.27,5592,17.44,74506.5,1.85,-28.69,-28.91,0,*4D
1497812563.51,5593,17.44,74510.3,1.85,-27.99,-28.53,0,*42
1497812564.76,5594,17.44,74512.0,1.85,-27.71,-28.43,0,*42
1497812565.98,5595,17.44,74508.0,1.89,-27.29,-28.15,0,*41
1497812567.25,5596,17.44,74512.3,1.85,-28.21,-28.75,0,*4F
1497812568.51,5597,17.44,74512.5,1.85,-29.29,-29.39,0,*4E
1497812569.73,5598,17.44,74514.3,1.83,-29.45,-29.73,0,*43
1497812570.96,5599,17.44,74510.8,1.83,-29.45,-29.89,0,*47
1497812572.19,5600,17.44,74510.8,1.85,-29.57,-29.95,0,*4C
1497812573.43,5601,17.44,74514.5,1.85,-29.61,-29.89,0,*45
1497812574.68,5602,17.44,74510.0,1.85,-29.61,-29.89,0,*46
1497812575.94,5603,17.44,74510.3,1.85,-29.29,-29.29,0,*41
1497812577.19,5604,17.44,74512.0,1.83,-29.39,-29.01,0,*4B
1497812578.39,5605,17.44,74510.0,1.83,-29.61,-28.53,0,*41
1497812579.66,5606,17.44,74510.8,1.85,-29.13,-27.19,0,*40
1497812580.91,5607,17.44,74512.5,1.83,-28.75,-25.71,0,*4A
1497812582.15,5608,17.44,74514.8,1.85,-28.85,-24.67,0,*4A
1497812583.36,5609,17.44,74510.8,1.83,-28.75,-23.89,0,*45
1497812584.58,5610,17.44,74514.5,1.83,-28.75,-23.09,0,*45
1497812585.86,5611,17.44,74514.8,1.81,-28.79,-22.17,0,*44
1497812587.08,5612,17.44,74516.8,1.83,-28.21,-21.09,0,*44
1497812588.32,5613,17.44,74512.5,1.83,-27.99,-20.53,0,*47
1497812589.52,5614,17.44,74514.5,1.83,-27.03,-20.25,0,*42
1497812590.75,5615,17.44,74514.3,1.83,-26.03,-21.03,0,*47
1497812591.95,5616,17.44,74512.8,1.83,-26.07,-22.03,0,*43
1497812593.16,5617,17.44,74512.5,1.83,-27.07,-23.95,0,*4D
1497812594.36,5618,17.44,74514.5,1.83,-27.89,-25.35,0,*48
1497812595.63,5619,17.44,74508.8,1.81,-28.91,-26.93,0,*42
1497812596.84,5620,17.44,74510.0,1.81,-28.97,-27.93,0,*4F
1497812598.12,5621,17.44,74508.3,1.81,-28.79,-28.63,0,*4E
1497812599.36,5622,17.44,74510.3,1.81,-29.35,-29.07,0,*47
1497812600.61,5623,17.44,74512.8,1.79,-29.39,-29.13,0,*48
1497812601.86,5624,17.44,74514.5,1.81,-29.45,-29.35,0,*47
1497812603.08,5625,17.44,74514.0,1.81,-29.45,-29.45,0,*41
1497812604.32,5626,17.44,74516.3,1.81,-29.29,-29.45,0,*48
1497812605.54,5627,17.44,74516.3,1.83,-29.01,-29.23,0,*41
1497812606.77,5628,17.44,74514.8,1.81,-29.07,-29.13,0,*49
1497812608.04,5629,17.44,74518.0,1.81,-29.13,-28.91,0,*46
1497812609.31,5630,17.44,74518.8,1.81,-28.91,-28.47,0,*4E
1497812610.54,5631,17.44,74518.3,1.79,-28.69,-28.21,0,*4F
1497812611.79,5632,17.44,74516.8,1.81,-28.53,-27.99,0,*4E
1497812613.03,5633,17.44,74518.5,1.81,-28.31,-27.39,0,*41
1497812614.28,5634,17.44,74516.5,1.79,-28.09,-26.81,0,*48
1497812615.5,5635,17.44,74522.8,1.81,-27.71,-26.07,0,*40
1497812616.75,5636,17.44,74522.8,1.81,-27.39,-25.61,0,*4C
1497812617.95,5637,17.44,74526.5,1.79,-27.29,-25.13,0,*4E
1497812619.17,5638,17.44,74524.8,1.79,-27.13,-24.67,0,*4A
1497812620.43,5639,17.44,74524.8,1.81,-26.71,-23.95,0,*43
1497812621.66,5640,17.44,74528.3,1.79,-26.65,-23.33,0,*43
1497812622.88,5641,17.44,74526.3,1.79,-26.49,-22.73,0,*49
1497812624.11,5642,17.44,74520.8,1.79,-26.03,-21.97,0,*4D
1497812625.35,5643,17.44,74520.3,1.79,-25.97,-21.57,0,*4E
1497812626.58,5644,17.44,74520.5,1.79,-25.75,-21.13,0,*45
1497812627.8,5645,17.44,74522.0,1.81,-25.39,-20.63,0,*4D
1497812629.02,5646,17.44,74524.5,1.79,-25.35,-20.53,0,*46
1497812630.26,5647,17.44,74520.3,1.77,-25.13,-20.25,0,*4C
1497812631.48,5648,17.44,74518.8,1.77,-24.97,-19.95,0,*4F
1497812632.71,5649,17.44,74522.8,1.79,-24.83,-19.91,0,*41
1497812633.93,5650,17.44,74522.0,1.79,-24.83,-19.91,0,*49
1497812635.18,5651,17.44,74518.5,1.79,-24.83,-19.85,0,*4D
1497812636.41,5652,17.44,74520.5,1.79,-24.77,-19.85,0,*45
1497812637.61,5653,17.44,74516.8,1.79,-24.51,-19.91,0,*45
1497812638.82,5654,17.44,74516.8,1.79,-24.47,-19.91,0,*45
1497812640.03,5655,17.44,74518.0,1.79,-24.31,-19.95,0,*41
1497812641.24,5656,17.44,74516.8,1.79,-24.05,-19.95,0,*45
1497812642.46,5657,17.44,74516.0,1.77,-23.79,-19.75,0,*48
1497812643.71,5658,17.44,74516.0,1.77,-23.65,-19.91,0,*40
1497812644.98,5659,17.44,74516.3,1.77,-23.49,-19.85,0,*4A
1497812646.26,5660,17.44,74512.8,1.77,-23.19,-19.85,0,*45
1497812647.45,5661,17.44,74514.8,1.79,-22.87,-19.71,0,*47
1497812648.65,5662,17.44,74514.0,1.79,-22.67,-19.71,0,*4A
1497812649.85,5663,17.44,74510.0,1.79,-22.37,-19.71,0,*4E
1497812651.07,5664,17.44,74512.5,1.79,-21.73,-19.41,0,*49
1497812652.29,5665,17.44,74510.5,1.79,-21.17,-19.27,0,*4A
1497812653.49,5666,17.44,74510.0,1.79,-20.63,-19.03,0,*4D
1497812654.67,5667,17.44,74514.0,1.79,-20.05,-18.83,0,*45
1497812655.88,5668,17.44,74518.5,1.79,-19.17,-18.49,0,*45
1497812657.08,5669,17.44,74516.0,1.79,-18.49,-18.11,0,*43
1497812658.28,5670,17.44,74514.5,1.79,-17.73,-18.07,0,*4A
1497812659.47,5671,17.44,74514.0,1.79,-16.97,-17.73,0,*4C
1497812660.7,5672,17.44,74510.5,1.79,-16.41,-17.63,0,*45
1497812661.97,5673,17.44,74514.3,1.81,-15.81,-17.45,0,*48
1497812663.16,5674,17.44,74514.3,1.79,-15.25,-17.31,0,*45
1497812664.37,5675,17.44,74514.3,1.81,-14.65,-16.93,0,*4F
1497812665.59,5676,17.44,74518.0,1.79,-14.29,-16.69,0,*46
1497812666.85,5677,17.44,74514.5,1.79,-13.83,-16.31,0,*4D
1497812668.07,5678,17.44,74514.0,1.81,-13.51,-15.67,0,*4A
1497812669.29,5679,17.44,74512.3,1.79,-13.37,-15.07,0,*4A
1497812670.49,5680,17.44,74512.8,1.79,-12.93,-14.19,0,*4D
1497812671.69,5681,17.44,74512.3,1.79,-12.39,-13.23,0,*42
1497812672.94,5682,17.44,74512.0,1.79,-11.85,-12.35,0,*43
1497812674.17,5683,17.44,74510.0,1.79,-11.37,-10.97,0,*41
1497812675.37,5684,17.44,74510.8,1.81,-10.01,-9.19,0,*7B
1497812676.57,5685,17.44,74514.5,1.79,-8.41,-7.23,0,*47
1497812677.78,5686,17.44,74510.8,1.79,-7.05,-5.43,0,*4F
1497812679.01,5687,17.44,74514.3,1.81,-5.61,-3.79,0,*46
1497812680.27,5688,17.44,74514.5,1.81,-4.01,-2.63,0,*44
1497812681.51,5689,17.44,74516.0,1.81,-3.15,-2.07,0,*45
1497812682.77,5690,17.44,74512.0,1.81,-2.47,-1.39,0,*45
1497812684.03,5691,17.44,74516.5,1.81,-1.95,-1.35,0,*44
1497812685.25,5692,17.44,74518.8,1.81,-1.59,-1.09,0,*48
1497812686.47,5693,17.44,74518.3,1.85,-1.59,-0.93,0,*7F
1497812687.7,5694,17.44,74514.8,1.85,-1.59,-1.05,0,*46
1497812688.9,5695,17.44,74510.3,1.83,-1.55,-1.05,0,*4D
1497812690.15,5696,17.44,74508.5,1.85,-1.43,-0.97,0,*75
1497812691.36,5697,17.44,74514.8,1.85,-1.33,-0.49,0,*70
1497812692.57,5698,17.44,74510.8,1.85,-1.67,-0.49,0,*7E
1497812693.78,5699,17.44,74510.8,1.85,-1.71,-0.41,0,*70
1497812695.03,5700,17.44,74514.5,1.89,-1.43,-0.27,0,*7C
1497812696.26,5701,17.44,74508.8,1.89,-1.43,-0.03,0,*4B
1497812697.49,5702,17.44,74512.0,1.91,-1.39,0.21,0,*51
1497812698.7,5703,17.44,74508.8,1.91,-1.05,0.05,0,*69
1497812699.93,5704,17.44,74512.5,1.89,-1.05,-0.19,0,*77
1497812701.12,5705,17.38,74510.3,1.91,-0.57,-0.15,0,*45
1497812702.3,5706,17.44,74510.8,1.91,-0.69,-0.77,0,*4F
1497812703.54,5707,17.44,74516.5,1.91,-1.13,-1.39,0,*49
1497812704.72,5708,17.44,74510.3,1.91,-1.63,-2.27,0,*4D
1497812705.96,5709,17.44,74512.3,1.91,-2.55,-2.67,0,*4E
1497812707.19,5710,17.44,74512.5,1.91,-2.67,-2.55,0,*46
1497812708.38,5711,17.44,74512.5,1.91,-3.15,-2.83,0,*48
1497812709.62,5712,17.44,74516.3,1.93,-3.03,-2.47,0,*46
1497812710.86,5713,17.44,74516.3,1.93,-2.99,-2.75,0,*44
1497812712.06,5714,17.44,74508.0,1.95,-3.47,-3.23,0,*45
1497812713.28,5715,17.44,74502.5,1.93,-3.75,-3.27,0,*47
1497812714.52,5716,17.44,74502.3,1.93,-3.67,-2.99,0,*43
1497812715.76,5717,17.44,74504.3,1.93,-3.27,-2.59,0,*4A
1497812716.99,5718,17.44,74508.0,1.93,-3.23,-2.63,0,*48
1497812718.21,5719,17.44,74510.0,1.93,-3.39,-2.87,0,*48
1497812719.45,5720,17.44,74510.0,1.93,-3.27,-2.47,0,*41
1497812720.66,5721,17.44,74510.0,1.93,-2.99,-2.15,0,*43
1497812721.87,5722,17.44,74514.8,1.93,-2.99,-2.15,0,*40
1497812723.13,5723,17.44,74512.5,1.93,-2.47,-1.87,0,*4A
1497812724.33,5724,17.44,74514.8,1.95,-1.75,-1.95,0,*4A
1497812725.54,5725,17.44,74514.8,1.95,-1.59,-2.59,0,*46
1497812726.72,5726,17.44,74518.5,1.95,-1.75,-3.91,0,*4E
1497812727.93,5727,17.44,74522.3,1.93,-2.79,-6.13,0,*49
1497812729.14,5728,17.44,74516.5,1.95,-4.05,-8.07,0,*46
1497812730.37,5729,17.44,74516.5,1.97,-5.23,-9.23,0,*47
1497812731.59,5730,17.44,74512.5,1.95,-6.89,-10.67,0,*76
1497812732.81,5731,17.44,74516.3,1.95,-7.95,-12.21,0,*7B
1497812734.0,5732,17.38,74514.5,1.95,-9.27,-13.65,0,*7E
1497812735.22,5733,17.44,74516.5,1.95,-10.15,-15.21,0,*40
1497812736.44,5734,17.44,74518.5,1.95,-12.07,-18.83,0,*43
1497812737.66,5735,17.38,74516.3,1.95,-13.79,-20.59,0,*46
1497812738.86,5736,17.44,74516.3,1.95,-15.25,-18.49,0,*40
1497812740.13,5737,17.44,74518.0,1.97,-12.71,-15.35,0,*43
1497812741.35,5738,17.44,74516.8,1.95,-12.47,-14.47,0,*4F
1497812742.57,5739,17.44,74518.8,1.95,-14.11,-14.05,0,*4D
1497812743.83,5740,17.44,74518.0,1.97,-13.83,-12.29,0,*45
1497812745.03,5741,17.44,74516.5,1.95,-9.83,-7.87,0,*4D
1497812746.27,5742,17.38,74514.8,1.97,-7.23,-5.11,0,*45
1497812747.5,5743,17.44,74518.5,1.97,-6.23,-4.49,0,*49
1497812748.73,5744,17.38,74516.5,1.97,-6.01,-4.85,0,*4E
1497812749.99,5745,17.44,74518.3,1.97,-6.23,-5.23,0,*42
1497812751.23,5746,17.44,74518.0,1.95,-6.93,-5.69,0,*46
1497812752.44,5747,17.44,74518.0,1.97,-6.59,-5.39,0,*46
1497812753.68,5748,17.44,74516.8,1.97,-6.55,-5.15,0,*4B
1497812754.91,5749,17.44,74516.5,1.97,-5.69,-4.33,0,*43
1497812756.14,5750,17.44,74520.3,1.97,-5.03,-3.75,0,*42
1497812757.34,5751,17.38,74520.0,1.97,-4.37,-3.23,0,*46
1497812758.59,5752,17.44,74524.3,1.97,-3.71,-2.59,0,*4C
1497812759.82,5753,17.44,74524.0,1.97,-3.23,-2.07,0,*41
1497812761.03,5754,17.44,74520.5,1.99,-3.19,-2.03,0,*45
1497812762.24,5755,17.38,74522.0,1.99,-3.71,-2.39,0,*43
1497812763.47,5756,17.44,74522.3,1.97,-4.53,-2.75,0,*41
1497812764.68,5757,17.44,74524.0,1.99,-4.81,-3.27,0,*47
1497812765.86,5758,17.44,74524.0,1.99,-5.35,-4.09,0,*4D
1497812767.1,5759,17.44,74520.5,1.99,-6.19,-5.11,0,*49
1497812768.28,5760,17.38,74522.8,1.99,-7.23,-6.31,0,*4A
1497812769.52,5761,17.44,74522.8,2.01,-7.19,-7.31,0,*41
1497812770.78,5762,17.44,74520.0,2.01,-7.61,-7.99,0,*4F
1497812772.04,5763,17.44,74522.5,2.01,-7.61,-7.99,0,*4E
1497812773.3,5764,17.44,74520.0,2.01,-7.69,-7.99,0,*41
1497812774.56,5765,17.38,74516.0,2.01,-7.69,-8.11,0,*4F
1497812775.79,5766,17.44,74520.5,2.01,-8.93,-10.01,0,*7E
1497812777.01,5767,17.38,74520.8,2.03,-11.23,-12.07,0,*4A
1497812778.26,5768,17.44,74520.8,2.01,-13.97,-13.43,0,*4B
1497812779.49,5769,17.38,74520.5,2.01,-14.69,-13.79,0,*45
1497812780.71,5770,17.38,74522.8,2.01,-15.75,-15.11,0,*49
1497812781.96,5771,17.38,74520.8,2.01,-16.69,-15.71,0,*40
1497812783.19,5772,17.44,74524.8,2.01,-17.83,-16.79,0,*4D
1497812784.43,5773,17.38,74520.3,2.01,-20.73,-19.27,0,*43
1497812785.65,5774,17.44,74524.8,2.01,-22.87,-20.69,0,*4D
1497812786.89,5775,17.38,74526.5,2.01,-23.53,-21.47,0,*49
1497812788.12,5776,17.38,74526.3,1.99,-23.75,-21.97,0,*41
1497812789.39,5777,17.38,74526.3,1.97,-24.21,-22.77,0,*45
1497812790.64,5778,17.38,74522.5,1.99,-23.85,-23.19,0,*44
1497812791.88,5779,17.44,74522.8,1.99,-22.77,-23.33,0,*41
1497812793.1,5780,17.44,74522.3,1.97,-22.27,-22.57,0,*4F
1497812794.32,5781,17.44,74520.0,1.97,-20.59,-19.03,0,*4C
1497812795.54,5782,17.44,74522.5,1.97,-17.73,-15.95,0,*40
1497812796.8,5783,17.44,74520.3,1.97,-15.43,-15.89,0,*4D
1497812798.05,5784,17.38,74520.5,1.95,-15.85,-16.51,0,*44
1497812799.29,5785,17.38,74524.8,1.97,-18.79,-17.63,0,*49
1497812800.52,5786,17.38,74526.5,1.97,-22.03,-18.89,0,*45
1497812801.76,5787,17.44,74528.0,1.97,-24.87,-21.39,0,*4F
1497812802.96,5788,17.38,74524.3,1.95,-27.93,-25.39,0,*40
1497812804.22,5789,17.38,74522.0,1.95,-28.25,-25.97,0,*47
1497812805.46,5790,17.44,74526.3,1.95,-28.47,-26.29,0,*4D
1497812806.7,5791,17.38,74518.5,1.97,-27.51,-24.87,0,*40
1497812807.92,5792,17.44,74522.5,1.95,-28.09,-24.57,0,*4E
1497812809.13,5793,17.38,74518.5,1.95,-26.61,-23.29,0,*41
1497812810.35,5794,17.44,74522.3,1.95,-26.39,-23.99,0,*40
1497812811.55,5795,17.38,74518.0,1.95,-26.61,-24.77,0,*4B
1497812812.78,5796,17.38,74522.0,1.95,-27.29,-25.55,0,*44
1497812814.01,5797,17.38,74518.8,1.95,-27.29,-26.29,0,*4D
1497812815.26,5798,17.44,74522.5,1.95,-28.25,-26.77,0,*4A
1497812816.48,5799,17.38,74520.0,1.93,-27.93,-26.87,0,*40
1497812817.72,5800,17.44,74520.0,1.93,-28.31,-27.39,0,*4C
1497812818.94,5801,17.38,74516.5,1.95,-28.75,-27.77,0,*41
1497812820.19,5802,17.38,74516.0,1.93,-28.63,-27.89,0,*42
1497812821.43,5803,17.38,74518.0,1.93,-28.79,-27.93,0,*43
1497812822.68,5804,17.38,74522.5,1.93,-28.97,-27.99,0,*4E
1497812823.96,5805,17.38,74522.5,1.93,-29.01,-27.99,0,*41
1497812825.23,5806,17.38,74522.8,1.93,-29.01,-28.09,0,*44
1497812826.46,5807,17.38,74522.3,1.91,-29.17,-28.15,0,*4D
1497812827.69,5808,17.38,74522.0,1.91,-29.23,-28.05,0,*44
1497812828.96,5809,17.44,74524.8,1.89,-29.17,-28.05,0,*4B
1497812830.2,5810,17.38,74524.3,1.89,-29.07,-27.99,0,*48
1497812831.43,5811,17.38,74520.0,1.91,-29.23,-27.99,0,*46
1497812832.65,5812,17.38,74520.3,1.89,-29.23,-28.15,0,*47
1497812833.88,5813,17.44,74524.8,1.91,-29.17,-28.15,0,*48
1497812835.16,5814,17.44,74524.0,1.89,-29.35,-28.05,0,*47
1497812836.38,5815,17.38,74522.5,1.89,-29.23,-28.15,0,*40
1497812837.63,5816,17.38,74524.8,1.89,-29.23,-27.99,0,*48
1497812838.88,5817,17.38,74524.3,1.89,-29.23,-27.99,0,*49
1497812840.12,5818,17.38,74520.5,1.89,-29.17,-27.93,0,*4B
1497812841.36,5819,17.38,74522.0,1.89,-29.01,-27.77,0,*47
1497812842.61,5820,17.44,74524.8,1.89,-28.79,-27.67,0,*42
1497812843.85,5821,17.38,74520.3,1.85,-27.99,-26.65,0,*4D
1497812845.09,5822,17.38,74520.8,1.85,-27.35,-26.07,0,*4C
1497812846.35,5823,17.38,74520.0,1.85,-26.97,-25.49,0,*4D
1497812847.59,5824,17.38,74520.5,1.85,-27.03,-25.03,0,*48
1497812848.83,5825,17.38,74520.8,1.85,-24.93,-24.21,0,*42
1497812850.08,5826,17.38,74522.0,1.85,-23.95,-23.09,0,*4D
1497812851.31,5827,17.44,74524.3,1.85,-23.39,-23.29,0,*48
1497812852.58,5828,17.38,74522.8,1.85,-24.25,-24.11,0,*41
1497812853.8,5829,17.38,74520.5,1.83,-25.35,-24.41,0,*43
1497812855.01,5830,17.38,74522.5,1.85,-25.49,-24.51,0,*47
1497812856.2,5831,17.38,74516.5,1.83,-25.23,-24.05,0,*4D
1497812857.39,5832,17.38,74518.8,1.83,-25.19,-23.59,0,*49
1497812858.63,5833,17.38,74520.5,1.85,-25.49,-23.53,0,*41
1497812859.87,5834,17.38,74524.3,1.85,-25.39,-23.29,0,*4C
1497812861.06,5835,17.38,74528.8,1.83,-25.35,-22.97,0,*43
1497812862.31,5836,17.38,74528.0,1.85,-25.19,-22.47,0,*45
1497812863.53,5837,17.38,74522.8,1.83,-24.87,-22.03,0,*44
1497812864.78,5838,17.38,74526.5,1.83,-24.83,-21.67,0,*4E
1497812866.02,5839,17.38,74522.5,1.83,-24.67,-21.33,0,*44
1497812867.22,5840,17.38,74520.0,1.83,-24.51,-21.09,0,*46
1497812868.42,5841,17.38,74520.3,1.83,-24.35,-20.73,0,*49
1497812869.65,5842,17.38,74520.5,1.85,-24.35,-20.43,0,*4F
1497812870.88,5843,17.38,74518.5,1.83,-24.25,-20.25,0,*49
1497812872.13,5844,17.38,74516.0,1.85,-24.25,-19.95,0,*49
1497812873.36,5845,17.38,74516.8,1.83,-24.05,-19.65,0,*43
1497812874.57,5846,17.38,74516.5,1.83,-23.79,-19.23,0,*4E
1497812875.82,5847,17.38,74514.3,1.85,-23.53,-18.69,0,*4E
1497812877.06,5848,17.38,74516.8,1.83,-23.53,-18.59,0,*44
1497812878.3,5849,17.38,74512.8,1.85,-23.75,-18.55,0,*4B
1497812879.52,5850,17.38,74514.0,1.85,-23.75,-18.41,0,*46
1497812880.75,5851,17.38,74522.0,1.85,-23.69,-18.25,0,*48
1497812881.95,5852,17.44,74522.5,1.83,-23.79,-18.17,0,*4D
1497812883.19,5853,17.38,74520.8,1.85,-23.95,-18.17,0,*48
1497812884.44,5854,17.38,74526.5,1.85,-23.95,-18.11,0,*49
1497812885.68,5855,17.38,74522.8,1.85,-24.21,-18.17,0,*46
1497812886.96,5856,17.38,74522.3,1.85,-24.25,-18.01,0,*46
1497812888.18,5857,17.38,74522.5,1.83,-24.35,-18.01,0,*40
1497812889.43,5858,17.38,74522.5,1.85,-24.35,-17.97,0,*49
1497812890.66,5859,17.38,74520.0,1.85,-24.35,-17.83,0,*4D
1497812891.86,5860,17.38,74526.8,1.83,-24.35,-17.69,0,*45
1497812893.08,5861,17.38,74524.3,1.83,-24.41,-17.69,0,*47
1497812894.28,5862,17.38,74522.3,1.83,-24.51,-17.69,0,*45
1497812895.48,5863,17.38,74522.3,1.83,-24.57,-17.69,0,*42
1497812896.73,5864,17.38,74520.0,1.81,-24.71,-17.69,0,*43
1497812897.98,5865,17.38,74524.0,1.83,-24.67,-17.55,0,*48
1497812899.23,5866,17.38,74518.3,1.83,-24.83,-17.41,0,*44
1497812900.49,5867,17.38,74522.3,1.85,-24.71,-17.35,0,*4D
1497812901.68,5868,17.38,74522.0,1.83,-24.93,-17.35,0,*48
1497812902.92,5869,17.38,74520.0,1.83,-25.03,-17.11,0,*47
1497812904.14,5870,17.38,74520.5,1.83,-25.23,-17.21,0,*4E
1497812905.38,5871,17.38,74520.0,1.81,-25.39,-17.25,0,*42
1497812906.6,5872,17.38,74518.5,1.83,-25.55,-16.97,0,*41
1497812907.79,5873,17.38,74518.0,1.83,-25.65,-16.89,0,*4C
1497812908.99,5874,17.38,74516.8,1.83,-25.87,-16.89,0,*47
1497812910.18,5875,17.38,74518.8,1.83,-25.91,-16.75,0,*42
1497812911.39,5876,17.38,74516.0,1.83,-26.03,-16.75,0,*49
1497812912.6,5877,17.38,74520.0,1.83,-26.03,-16.59,0,*46